| time (UTC) | temp F | wind direction | speed MPH | gust MPH | rain 1hr in | rain 24hr in | rain mn in | humidity % | barometer mb |
| 20260504173015 | 66 | 227 | 5.0 | 17.0 | 0.00 | 0.00 | 0.00 | 32 | 1010.5 |
| 20260504171511 | 67 | 211 | 6.0 | 11.0 | 0.00 | 0.00 | 0.00 | 30 | 1010.8 |
| 20260504160104 | 64 | 200 | 4.0 | 10.0 | 0.00 | 0.00 | 0.00 | 27 | 1011.7 |
| 20260504081535 | 42 | 360 | 1.0 | 2.0 | 0.00 | 0.00 | 0.00 | 50 | 1014.1 |
| 20260504050010 | 45 | 360 | 2.0 | 4.0 | 0.00 | 0.00 | 0.00 | 46 | 1013.7 |
| 20260504044509 | 45 | 360 | 1.0 | 3.0 | 0.00 | 0.00 | 0.00 | 45 | 1013.6 |
| 20260504043012 | 45 | 360 | 2.0 | 3.0 | 0.00 | 0.00 | 0.00 | 45 | 1013.6 |
| 20260504041506 | 45 | 360 | 1.0 | 4.0 | 0.00 | 0.00 | 0.00 | 46 | 1013.6 |
| 20260504040008 | 44 | 360 | 0.0 | 2.0 | 0.00 | 0.00 | 0.00 | 46 | 1013.4 |
| 20260504034501 | 44 | 360 | 0.0 | 2.0 | 0.00 | 0.00 | 0.00 | 47 | 1013.4 |
| 20260504033002 | 45 | 360 | 0.0 | 0.0 | 0.00 | 0.00 | 0.00 | 45 | 1013.3 |
| 20260504031502 | 45 | 360 | 0.0 | 2.0 | 0.00 | 0.00 | 0.00 | 43 | 1013.3 |
| 20260504030001 | 46 | 360 | 1.0 | 3.0 | 0.00 | 0.00 | 0.00 | 42 | 1013.3 |
| 20260504024601 | 46 | 360 | 0.0 | 1.0 | 0.00 | 0.00 | 0.00 | 42 | 1013.3 |
| 20260504023100 | 46 | 360 | 2.0 | 3.0 | 0.00 | 0.00 | 0.00 | 43 | 1013.3 |
| 20260504021602 | 45 | 360 | 0.0 | 1.0 | 0.00 | 0.00 | 0.00 | 46 | 1013.3 |
| 20260504020114 | 45 | 360 | 0.0 | 1.0 | 0.00 | 0.00 | 0.00 | 47 | 1013.4 |
| 20260504014605 | 45 | 360 | 0.0 | 0.0 | 0.00 | 0.00 | 0.00 | 45 | 1013.1 |
| 20260504013106 | 46 | 360 | 0.0 | 0.0 | 0.00 | 0.00 | 0.00 | 43 | 1013.0 |
| 20260504011559 | 48 | 238 | 0.0 | 2.0 | 0.00 | 0.00 | 0.00 | 42 | 1012.9 |
| 20260504010056 | 48 | 238 | 0.0 | 3.0 | 0.00 | 0.00 | 0.00 | 39 | 1012.8 |
| 20260504004559 | 48 | 360 | 0.0 | 2.0 | 0.00 | 0.00 | 0.00 | 42 | 1012.7 |
| 20260504003057 | 49 | 360 | 0.0 | 2.0 | 0.00 | 0.00 | 0.00 | 41 | 1012.6 |
| 20260504001559 | 51 | 360 | 0.0 | 2.0 | 0.00 | 0.00 | 0.00 | 37 | 1012.4 |
| 20260504000057 | 52 | 238 | 0.0 | 2.0 | 0.00 | 0.00 | 0.00 | 35 | 1012.4 |
| 20260503234553 | 53 | 360 | 1.0 | 3.0 | 0.00 | 0.00 | 0.00 | 32 | 1012.3 |
| 20260503233054 | 53 | 360 | 1.0 | 8.0 | 0.00 | 0.00 | 0.00 | 31 | 1012.2 |
| 20260503231552 | 54 | 360 | 2.0 | 6.0 | 0.00 | 0.00 | 0.00 | 30 | 1012.2 |
| 20260503224555 | 55 | 360 | 5.0 | 9.0 | 0.00 | 0.00 | 0.00 | 28 | 1012.2 |
| 20260503223048 | 55 | 360 | 3.0 | 5.0 | 0.00 | 0.00 | 0.00 | 28 | 1012.0 |
| 20260503221548 | 56 | 360 | 1.0 | 7.0 | 0.00 | 0.00 | 0.00 | 28 | 1012.0 |
| 20260503220047 | 55 | 207 | 1.0 | 5.0 | 0.00 | 0.00 | 0.00 | 28 | 1012.2 |
| 20260503214548 | 56 | 38 | 2.0 | 10.0 | 0.00 | 0.00 | 0.00 | 26 | 1012.2 |
| 20260503213046 | 56 | 360 | 7.0 | 16.0 | 0.00 | 0.00 | 0.00 | 26 | 1012.0 |
| 20260503211605 | 56 | 360 | 6.0 | 14.0 | 0.00 | 0.00 | 0.00 | 25 | 1012.1 |
| 20260503210046 | 55 | 360 | 2.0 | 13.0 | 0.00 | 0.00 | 0.00 | 24 | 1012.1 |
| 20260503204545 | 58 | 273 | 5.0 | 12.0 | 0.00 | 0.00 | 0.00 | 22 | 1011.9 |
| 20260503203047 | 56 | 360 | 5.0 | 14.0 | 0.00 | 0.00 | 0.00 | 25 | 1012.0 |
| 20260503201542 | 56 | 360 | 8.0 | 18.0 | 0.00 | 0.00 | 0.00 | 22 | 1012.0 |
| 20260503200053 | 56 | 293 | 4.0 | 18.0 | 0.00 | 0.00 | 0.00 | 25 | 1012.0 |
| 20260503194538 | 55 | 360 | 2.0 | 11.0 | 0.00 | 0.00 | 0.00 | 28 | 1012.2 |
| 20260503193042 | 56 | 230 | 5.0 | 10.0 | 0.00 | 0.00 | 0.00 | 23 | 1012.5 |
| 20260503191542 | 55 | 221 | 4.0 | 10.0 | 0.00 | 0.00 | 0.00 | 26 | 1012.6 |
| 20260503190032 | 55 | 70 | 3.0 | 11.0 | 0.00 | 0.00 | 0.00 | 24 | 1013.0 |
| 20260503184539 | 55 | 250 | 2.0 | 12.0 | 0.00 | 0.00 | 0.00 | 25 | 1013.2 |
| 20260503183028 | 53 | 240 | 4.0 | 12.0 | 0.00 | 0.00 | 0.00 | 29 | 1013.4 |
| 20260503181527 | 53 | 268 | 4.0 | 15.0 | 0.00 | 0.00 | 0.00 | 29 | 1013.7 |
| 20260503180041 | 52 | 286 | 4.0 | 12.0 | 0.00 | 0.00 | 0.00 | 27 | 1013.6 |
| 20260503174526 | 52 | 221 | 6.0 | 13.0 | 0.00 | 0.00 | 0.00 | 27 | 1013.8 |